owner,sensor,date,latitude,longitude,vertical_datum,direction_of_sea_water_velocity,sea_water_speed,upward_sea_water_velocity,qcFlag 
TABS,ioos:station:wmo:42050:1,1999-07-01T00:00:00Z,28.8425,-94.2433,2.0,182.925397,26.25421871,-99999.0,'11111222,11111222,99999999' 
TABS,ioos:station:wmo:42050:1,1999-07-01T00:30:00Z,28.8425,-94.2433,2.0,195.0492792,24.686711,-99999.0,'11111222,11111222,99999999' 
TABS,ioos:station:wmo:42050:1,1999-07-01T01:00:00Z,28.8425,-94.2433,2.0,212.3639032,25.05142112,-99999.0,'11111222,11111222,99999999' 
TABS,ioos:station:wmo:42050:1,1999-07-01T01:30:00Z,28.8425,-94.2433,2.0,221.0900636,23.12671399,-99999.0,'11111222,11111222,99999999' 
TABS,ioos:station:wmo:42050:1,1999-07-01T02:00:00Z,28.8425,-94.2433,2.0,232.0612337,20.5915808,-99999.0,'11111222,11111222,99999999' 
TABS,ioos:station:wmo:42050:1,1999-07-01T02:30:00Z,28.8425,-94.2433,2.0,250.2438293,18.5200567,-99999.0,'11111222,11111222,99999999' 
TABS,ioos:station:wmo:42050:1,1999-07-01T03:00:00Z,28.8425,-94.2433,2.0,258.9614885,19.42944415,-99999.0,'11111222,11111222,99999999' 
TABS,ioos:station:wmo:42050:1,1999-07-01T03:30:00Z,28.8425,-94.2433,2.0,267.5685217,17.44570148,-99999.0,'11111222,11111222,99999999' 
TABS,ioos:station:wmo:42050:1,1999-07-01T04:00:00Z,28.8425,-94.2433,2.0,285.1642205,16.51502346,-99999.0,'11111222,11111222,99999999' 
TABS,ioos:station:wmo:42050:1,1999-07-01T04:30:00Z,28.8425,-94.2433,2.0,291.4107779,16.32671431,-99999.0,'11111222,11111222,99999999' 
TABS,ioos:station:wmo:42050:1,1999-07-01T05:00:00Z,28.8425,-94.2433,2.0,316.3669966,17.49172662,-99999.0,'11111222,11111222,99999999' 
TABS,ioos:station:wmo:42050:1,1999-07-01T05:30:00Z,28.8425,-94.2433,2.0,330.9872445,18.74193693,-99999.0,'11111222,11111222,99999999' 
TABS,ioos:station:wmo:42050:1,1999-07-01T06:00:00Z,28.8425,-94.2433,2.0,341.9336227,21.15291233,-99999.0,'11111222,11111222,99999999' 
TABS,ioos:station:wmo:42050:1,1999-07-01T06:30:00Z,28.8425,-94.2433,2.0,345.1816264,18.65030295,-99999.0,'11111222,11111222,99999999' 
TABS,ioos:station:wmo:42050:1,1999-07-01T07:00:00Z,28.8425,-94.2433,2.0,358.1838325,18.92951135,-99999.0,'11111222,11111222,99999999' 
TABS,ioos:station:wmo:42050:1,1999-07-01T07:30:00Z,28.8425,-94.2433,2.0,4.895704066,22.73292986,-99999.0,'11111222,11111222,99999999' 
TABS,ioos:station:wmo:42050:1,1999-07-01T08:00:00Z,28.8425,-94.2433,2.0,12.71539663,23.67049218,-99999.0,'11111222,11111222,99999999' 
TABS,ioos:station:wmo:42050:1,1999-07-01T08:30:00Z,28.8425,-94.2433,2.0,13.94993282,24.10079252,-99999.0,'11111222,11111222,99999999' 
TABS,ioos:station:wmo:42050:1,1999-07-01T09:00:00Z,28.8425,-94.2433,2.0,17.74018959,23.46582622,-99999.0,'11111222,11111222,99999999' 
TABS,ioos:station:wmo:42050:1,1999-07-01T09:30:00Z,28.8425,-94.2433,2.0,22.45058279,19.50854684,-99999.0,'11111222,11111222,99999999' 
TABS,ioos:station:wmo:42050:1,1999-07-01T10:00:00Z,28.8425,-94.2433,2.0,39.075341,19.38635861,-99999.0,'11111222,11111222,99999999' 
TABS,ioos:station:wmo:42050:1,1999-07-01T10:30:00Z,28.8425,-94.2433,2.0,43.89793079,16.54228823,-99999.0,'11111222,11111222,99999999' 
TABS,ioos:station:wmo:42050:1,1999-07-01T11:00:00Z,28.8425,-94.2433,2.0,52.67152742,14.99048031,-99999.0,'11111222,11111222,99999999' 
TABS,ioos:station:wmo:42050:1,1999-07-01T11:30:00Z,28.8425,-94.2433,2.0,74.42823333,12.2184819,-99999.0,'11111222,11111222,99999999' 
TABS,ioos:station:wmo:42050:1,1999-07-01T12:00:00Z,28.8425,-94.2433,2.0,92.18950626,11.77859924,-99999.0,'11111222,11111222,99999999' 
TABS,ioos:station:wmo:42050:1,1999-07-01T12:30:00Z,28.8425,-94.2433,2.0,104.6344488,14.1697036,-99999.0,'11111222,11111222,99999999' 
TABS,ioos:station:wmo:42050:1,1999-07-01T13:00:00Z,28.8425,-94.2433,2.0,119.6773314,14.74401913,-99999.0,'11111222,11111222,99999999' 
TABS,ioos:station:wmo:42050:1,1999-07-01T13:30:00Z,28.8425,-94.2433,2.0,127.3779939,16.68665635,-99999.0,'11111222,11111222,99999999' 
TABS,ioos:station:wmo:42050:1,1999-07-01T14:00:00Z,28.8425,-94.2433,2.0,132.2735902,22.15044243,-99999.0,'11111222,11111222,99999999' 
TABS,ioos:station:wmo:42050:1,1999-07-01T14:30:00Z,28.8425,-94.2433,2.0,143.2075816,23.62602167,-99999.0,'11111222,11111222,99999999' 
TABS,ioos:station:wmo:42050:1,1999-07-01T15:00:00Z,28.8425,-94.2433,2.0,149.4002678,27.52264886,-99999.0,'11111222,11111222,99999999' 
TABS,ioos:station:wmo:42050:1,1999-07-01T15:30:00Z,28.8425,-94.2433,2.0,152.5177252,29.0591896,-99999.0,'11111222,11111222,99999999' 
TABS,ioos:station:wmo:42050:1,1999-07-01T16:00:00Z,28.8425,-94.2433,2.0,149.1500556,27.59417692,-99999.0,'11111222,11111222,99999999' 
TABS,ioos:station:wmo:42050:1,1999-07-01T16:30:00Z,28.8425,-94.2433,2.0,147.7121682,25.38513738,-99999.0,'11111222,11111222,99999999' 
TABS,ioos:station:wmo:42050:1,1999-07-01T17:00:00Z,28.8425,-94.2433,2.0,134.5025492,24.43853105,-99999.0,'11111222,11111222,99999999' 
TABS,ioos:station:wmo:42050:1,1999-07-01T17:30:00Z,28.8425,-94.2433,2.0,142.4941497,26.67364242,-99999.0,'11111222,11111222,99999999' 
TABS,ioos:station:wmo:42050:1,1999-07-01T18:00:00Z,28.8425,-94.2433,2.0,143.679855,27.92528603,-99999.0,'11111222,11111222,99999999' 
TABS,ioos:station:wmo:42050:1,1999-07-01T18:30:00Z,28.8425,-94.2433,2.0,146.1587847,31.56809782,-99999.0,'11111222,11111222,99999999' 
TABS,ioos:station:wmo:42050:1,1999-07-01T19:00:00Z,28.8425,-94.2433,2.0,140.4308531,26.67158975,-99999.0,'11111222,11111222,99999999' 
TABS,ioos:station:wmo:42050:1,1999-07-01T19:30:00Z,28.8425,-94.2433,2.0,144.1962778,30.30724831,-99999.0,'11111222,11111222,99999999' 
TABS,ioos:station:wmo:42050:1,1999-07-01T20:00:00Z,28.8425,-94.2433,2.0,150.257169,32.43260242,-99999.0,'11111222,11111222,99999999' 
TABS,ioos:station:wmo:42050:1,1999-07-01T20:30:00Z,28.8425,-94.2433,2.0,163.9815192,30.22346936,-99999.0,'11111222,11111222,99999999' 
TABS,ioos:station:wmo:42050:1,1999-07-01T21:00:00Z,28.8425,-94.2433,2.0,180.3099398,27.71040599,-99999.0,'11111222,11111222,99999999' 
TABS,ioos:station:wmo:42050:1,1999-07-01T21:30:00Z,28.8425,-94.2433,2.0,187.0110656,26.87093783,-99999.0,'11111222,11111222,99999999' 
TABS,ioos:station:wmo:42050:1,1999-07-01T22:00:00Z,28.8425,-94.2433,2.0,192.9974618,27.83310978,-99999.0,'11111222,11111222,99999999' 
TABS,ioos:station:wmo:42050:1,1999-07-01T22:30:00Z,28.8425,-94.2433,2.0,201.2119898,26.36641804,-99999.0,'11111222,11111222,99999999' 
TABS,ioos:station:wmo:42050:1,1999-07-01T23:00:00Z,28.8425,-94.2433,2.0,205.503374,28.72945875,-99999.0,'11111222,11111222,99999999' 
TABS,ioos:station:wmo:42050:1,1999-07-01T23:30:00Z,28.8425,-94.2433,2.0,206.5647786,29.65026138,-99999.0,'11111222,11111222,99999999' 
TABS,ioos:station:wmo:42050:1,1999-07-02T00:00:00Z,28.8425,-94.2433,2.0,217.5693934,31.76836949,-99999.0,'11111222,11111222,99999999' 
TABS,ioos:station:wmo:42050:1,1999-07-02T00:30:00Z,28.8425,-94.2433,2.0,224.0286647,31.29396907,-99999.0,'11111222,11111222,99999999' 
TABS,ioos:station:wmo:42050:1,1999-07-02T01:00:00Z,28.8425,-94.2433,2.0,231.6460822,30.97438458,-99999.0,'11111222,11111222,99999999' 
TABS,ioos:station:wmo:42050:1,1999-07-02T01:30:00Z,28.8425,-94.2433,2.0,235.0315133,31.45932771,-99999.0,'11111222,11111222,99999999' 
TABS,ioos:station:wmo:42050:1,1999-07-02T02:00:00Z,28.8425,-94.2433,2.0,236.2348699,31.90083541,-99999.0,'11111222,11111222,99999999' 
TABS,ioos:station:wmo:42050:1,1999-07-02T02:30:00Z,28.8425,-94.2433,2.0,242.2634623,26.2569229,-99999.0,'11111222,11111222,99999999' 
TABS,ioos:station:wmo:42050:1,1999-07-02T03:00:00Z,28.8425,-94.2433,2.0,248.322159,26.61206118,-99999.0,'11111222,11111222,99999999' 
TABS,ioos:station:wmo:42050:1,1999-07-02T03:30:00Z,28.8425,-94.2433,2.0,251.2192919,23.60683164,-99999.0,'11111222,11111222,99999999' 
TABS,ioos:station:wmo:42050:1,1999-07-02T04:00:00Z,28.8425,-94.2433,2.0,253.9982094,21.076615,-99999.0,'11111222,11111222,99999999' 
TABS,ioos:station:wmo:42050:1,1999-07-02T04:30:00Z,28.8425,-94.2433,2.0,264.8776033,20.05006234,-99999.0,'11111222,11111222,99999999' 
TABS,ioos:station:wmo:42050:1,1999-07-02T05:00:00Z,28.8425,-94.2433,2.0,274.1757925,20.46431528,-99999.0,'11111222,11111222,99999999' 
TABS,ioos:station:wmo:42050:1,1999-07-02T05:30:00Z,28.8425,-94.2433,2.0,294.382372,19.13674215,-99999.0,'11111222,11111222,99999999' 
TABS,ioos:station:wmo:42050:1,1999-07-02T06:00:00Z,28.8425,-94.2433,2.0,307.0595201,17.55609581,-99999.0,'11111222,11111222,99999999' 
TABS,ioos:station:wmo:42050:1,1999-07-02T06:30:00Z,28.8425,-94.2433,2.0,316.9439921,18.76326731,-99999.0,'11111222,11111222,99999999' 
TABS,ioos:station:wmo:42050:1,1999-07-02T07:00:00Z,28.8425,-94.2433,2.0,322.0297178,21.55197671,-99999.0,'11111222,11111222,99999999' 
TABS,ioos:station:wmo:42050:1,1999-07-02T07:30:00Z,28.8425,-94.2433,2.0,328.5779208,18.85515845,-99999.0,'11111222,11111222,99999999' 
TABS,ioos:station:wmo:42050:1,1999-07-02T08:00:00Z,28.8425,-94.2433,2.0,332.9246797,22.5851832,-99999.0,'11111222,11111222,99999999' 
TABS,ioos:station:wmo:42050:1,1999-07-02T08:30:00Z,28.8425,-94.2433,2.0,333.8210448,19.92381741,-99999.0,'11111222,11111222,99999999' 
TABS,ioos:station:wmo:42050:1,1999-07-02T09:00:00Z,28.8425,-94.2433,2.0,327.4035527,17.15167922,-99999.0,'11111222,11111222,99999999' 
TABS,ioos:station:wmo:42050:1,1999-07-02T09:30:00Z,28.8425,-94.2433,2.0,329.1469756,14.23440901,-99999.0,'11111222,11111222,99999999' 
TABS,ioos:station:wmo:42050:1,1999-07-02T10:00:00Z,28.8425,-94.2433,2.0,301.464491,6.283947804,-99999.0,'11133222,11111222,99999999' 
TABS,ioos:station:wmo:42050:1,1999-07-02T10:30:00Z,28.8425,-94.2433,2.0,178.3506584,5.212158862,-99999.0,'11133222,11111222,99999999' 
TABS,ioos:station:wmo:42050:1,1999-07-02T11:00:00Z,28.8425,-94.2433,2.0,183.6911669,11.49384618,-99999.0,'11111222,11111222,99999999' 
TABS,ioos:station:wmo:42050:1,1999-07-02T11:30:00Z,28.8425,-94.2433,2.0,176.681477,15.37577966,-99999.0,'11111222,11111222,99999999' 
TABS,ioos:station:wmo:42050:1,1999-07-02T12:00:00Z,28.8425,-94.2433,2.0,175.689899,15.83477818,-99999.0,'11111222,11111222,99999999' 
TABS,ioos:station:wmo:42050:1,1999-07-02T12:30:00Z,28.8425,-94.2433,2.0,172.9491134,18.16738286,-99999.0,'11111222,11111222,99999999' 
TABS,ioos:station:wmo:42050:1,1999-07-02T13:00:00Z,28.8425,-94.2433,2.0,177.7251518,18.64469093,-99999.0,'11111222,11111222,99999999' 
TABS,ioos:station:wmo:42050:1,1999-07-02T13:30:00Z,28.8425,-94.2433,2.0,172.0481772,25.87881952,-99999.0,'11111222,11111222,99999999' 
TABS,ioos:station:wmo:42050:1,1999-07-02T14:00:00Z,28.8425,-94.2433,2.0,173.306173,26.8530408,-99999.0,'11111222,11111222,99999999' 
TABS,ioos:station:wmo:42050:1,1999-07-02T14:30:00Z,28.8425,-94.2433,2.0,171.2293476,32.26729769,-99999.0,'11111222,11111222,99999999' 
TABS,ioos:station:wmo:42050:1,1999-07-02T15:00:00Z,28.8425,-94.2433,2.0,174.9197497,28.57223302,-99999.0,'11111222,11111222,99999999' 
TABS,ioos:station:wmo:42050:1,1999-07-02T15:30:00Z,28.8425,-94.2433,2.0,182.8337059,30.13685617,-99999.0,'11111222,11111222,99999999' 
TABS,ioos:station:wmo:42050:1,1999-07-02T16:00:00Z,28.8425,-94.2433,2.0,183.5676022,33.58509342,-99999.0,'11111222,11111222,99999999' 
TABS,ioos:station:wmo:42050:1,1999-07-02T16:30:00Z,28.8425,-94.2433,2.0,188.791896,33.16976485,-99999.0,'11111222,11111222,99999999' 
TABS,ioos:station:wmo:42050:1,1999-07-02T17:00:00Z,28.8425,-94.2433,2.0,189.9166839,30.25200985,-99999.0,'11111222,11111222,99999999' 
TABS,ioos:station:wmo:42050:1,1999-07-02T17:30:00Z,28.8425,-94.2433,2.0,193.0245745,28.44173342,-99999.0,'11111222,11111222,99999999' 
TABS,ioos:station:wmo:42050:1,1999-07-02T18:00:00Z,28.8425,-94.2433,2.0,197.5937316,25.63934672,-99999.0,'11111222,11111222,99999999' 
TABS,ioos:station:wmo:42050:1,1999-07-02T18:30:00Z,28.8425,-94.2433,2.0,205.7440859,27.78823132,-99999.0,'11111222,11111222,99999999' 
TABS,ioos:station:wmo:42050:1,1999-07-02T19:00:00Z,28.8425,-94.2433,2.0,210.1020866,27.03637735,-99999.0,'11111222,11111222,99999999' 
TABS,ioos:station:wmo:42050:1,1999-07-02T19:30:00Z,28.8425,-94.2433,2.0,210.9602416,30.40155424,-99999.0,'11111222,11111222,99999999' 
TABS,ioos:station:wmo:42050:1,1999-07-02T20:00:00Z,28.8425,-94.2433,2.0,217.8052276,31.11014786,-99999.0,'11111222,11111222,99999999' 
TABS,ioos:station:wmo:42050:1,1999-07-02T20:30:00Z,28.8425,-94.2433,2.0,222.9189677,31.93985911,-99999.0,'11111222,11111222,99999999' 
TABS,ioos:station:wmo:42050:1,1999-07-02T21:00:00Z,28.8425,-94.2433,2.0,227.2481281,32.26183659,-99999.0,'11111222,11111222,99999999' 
TABS,ioos:station:wmo:42050:1,1999-07-02T21:30:00Z,28.8425,-94.2433,2.0,229.4053395,35.71543084,-99999.0,'11111222,11111222,99999999' 
TABS,ioos:station:wmo:42050:1,1999-07-02T22:00:00Z,28.8425,-94.2433,2.0,232.2587087,37.49433291,-99999.0,'11111222,11111222,99999999' 
TABS,ioos:station:wmo:42050:1,1999-07-02T22:30:00Z,28.8425,-94.2433,2.0,234.2896848,39.81615878,-99999.0,'11111222,11111222,99999999' 
TABS,ioos:station:wmo:42050:1,1999-07-02T23:00:00Z,28.8425,-94.2433,2.0,237.7131151,42.1227029,-99999.0,'11111222,11111222,99999999' 
TABS,ioos:station:wmo:42050:1,1999-07-02T23:30:00Z,28.8425,-94.2433,2.0,241.6409374,44.8640892,-99999.0,'11111222,11111222,99999999' 
TABS,ioos:station:wmo:42050:1,1999-07-03T00:00:00Z,28.8425,-94.2433,2.0,245.4343389,47.67517174,-99999.0,'11111222,11111222,99999999' 
TABS,ioos:station:wmo:42050:1,1999-07-03T00:30:00Z,28.8425,-94.2433,2.0,246.7558926,48.32209536,-99999.0,'11111222,11111222,99999999' 
TABS,ioos:station:wmo:42050:1,1999-07-03T01:00:00Z,28.8425,-94.2433,2.0,251.4486121,46.83342823,-99999.0,'11111222,11111222,99999999' 
TABS,ioos:station:wmo:42050:1,1999-07-03T01:30:00Z,28.8425,-94.2433,2.0,256.6265049,43.79759126,-99999.0,'11111222,11111222,99999999' 
TABS,ioos:station:wmo:42050:1,1999-07-03T02:00:00Z,28.8425,-94.2433,2.0,257.96984,44.33358997,-99999.0,'11111222,11111222,99999999' 
TABS,ioos:station:wmo:42050:1,1999-07-03T02:30:00Z,28.8425,-94.2433,2.0,263.721773,43.62158296,-99999.0,'11111222,11111222,99999999' 
TABS,ioos:station:wmo:42050:1,1999-07-03T03:00:00Z,28.8425,-94.2433,2.0,270.0004209,44.85,-99999.0,'11111222,11111222,99999999' 
TABS,ioos:station:wmo:42050:1,1999-07-03T03:30:00Z,28.8425,-94.2433,2.0,275.690067,43.57467154,-99999.0,'11111222,11111222,99999999' 
TABS,ioos:station:wmo:42050:1,1999-07-03T04:00:00Z,28.8425,-94.2433,2.0,280.1656998,39.66259699,-99999.0,'11111222,11111222,99999999' 
TABS,ioos:station:wmo:42050:1,1999-07-03T04:30:00Z,28.8425,-94.2433,2.0,284.7246967,36.35386087,-99999.0,'11111222,11111222,99999999' 
TABS,ioos:station:wmo:42050:1,1999-07-03T05:00:00Z,28.8425,-94.2433,2.0,288.0481998,34.63405549,-99999.0,'11111222,11111222,99999999' 
TABS,ioos:station:wmo:42050:1,1999-07-03T05:30:00Z,28.8425,-94.2433,2.0,297.0461215,31.44916692,-99999.0,'11111222,11111222,99999999' 
TABS,ioos:station:wmo:42050:1,1999-07-03T06:00:00Z,28.8425,-94.2433,2.0,303.7767416,27.61023361,-99999.0,'11111222,11111222,99999999' 
TABS,ioos:station:wmo:42050:1,1999-07-03T06:30:00Z,28.8425,-94.2433,2.0,313.768699,24.34423957,-99999.0,'11111222,11111222,99999999' 
TABS,ioos:station:wmo:42050:1,1999-07-03T07:00:00Z,28.8425,-94.2433,2.0,325.7702787,26.48811054,-99999.0,'11111222,11111222,99999999' 
TABS,ioos:station:wmo:42050:1,1999-07-03T07:30:00Z,28.8425,-94.2433,2.0,336.7117105,26.760284,-99999.0,'11111222,11111222,99999999' 
TABS,ioos:station:wmo:42050:1,1999-07-03T08:00:00Z,28.8425,-94.2433,2.0,341.8611015,26.33896163,-99999.0,'11111222,11111222,99999999' 
TABS,ioos:station:wmo:42050:1,1999-07-03T08:30:00Z,28.8425,-94.2433,2.0,346.7928121,22.80315987,-99999.0,'11111222,11111222,99999999' 
TABS,ioos:station:wmo:42050:1,1999-07-03T09:00:00Z,28.8425,-94.2433,2.0,350.5292515,21.75656223,-99999.0,'11111222,11111222,99999999' 
TABS,ioos:station:wmo:42050:1,1999-07-03T09:30:00Z,28.8425,-94.2433,2.0,351.5268151,21.24186903,-99999.0,'11111222,11111222,99999999' 
TABS,ioos:station:wmo:42050:1,1999-07-03T10:00:00Z,28.8425,-94.2433,2.0,343.1027948,17.44307886,-99999.0,'11111222,11111222,99999999' 
TABS,ioos:station:wmo:42050:1,1999-07-03T10:30:00Z,28.8425,-94.2433,2.0,0.000210459,15.79,-99999.0,'11111222,11111222,99999999' 
TABS,ioos:station:wmo:42050:1,1999-07-03T11:00:00Z,28.8425,-94.2433,2.0,5.479939077,29.63543318,-99999.0,'11111222,11111222,99999999' 
TABS,ioos:station:wmo:42050:1,1999-07-03T11:30:00Z,28.8425,-94.2433,2.0,12.66392481,28.55463535,-99999.0,'11111222,11111222,99999999' 
TABS,ioos:station:wmo:42050:1,1999-07-03T12:00:00Z,28.8425,-94.2433,2.0,11.42320516,27.82108912,-99999.0,'11111222,11111222,99999999' 
TABS,ioos:station:wmo:42050:1,1999-07-03T12:30:00Z,28.8425,-94.2433,2.0,13.09108649,26.31384617,-99999.0,'11111222,11111222,99999999' 
TABS,ioos:station:wmo:42050:1,1999-07-03T13:00:00Z,28.8425,-94.2433,2.0,11.66093945,24.34239101,-99999.0,'11111222,11111222,99999999' 
TABS,ioos:station:wmo:42050:1,1999-07-03T13:30:00Z,28.8425,-94.2433,2.0,15.16917259,23.92353862,-99999.0,'11111222,11111222,99999999' 
TABS,ioos:station:wmo:42050:1,1999-07-03T14:00:00Z,28.8425,-94.2433,2.0,18.33217236,24.6405073,-99999.0,'11111222,11111222,99999999' 
TABS,ioos:station:wmo:42050:1,1999-07-03T14:30:00Z,28.8425,-94.2433,2.0,20.54789063,24.18889415,-99999.0,'11111222,11111222,99999999' 
TABS,ioos:station:wmo:42050:1,1999-07-03T15:00:00Z,28.8425,-94.2433,2.0,18.6595105,24.22323265,-99999.0,'11111222,11111222,99999999' 
TABS,ioos:station:wmo:42050:1,1999-07-03T15:30:00Z,28.8425,-94.2433,2.0,17.36331536,22.48456582,-99999.0,'11111222,11111222,99999999' 
TABS,ioos:station:wmo:42050:1,1999-07-03T16:00:00Z,28.8425,-94.2433,2.0,9.935516342,23.29941845,-99999.0,'11111222,11111222,99999999' 
TABS,ioos:station:wmo:42050:1,1999-07-03T16:30:00Z,28.8425,-94.2433,2.0,20.39942887,23.52535866,-99999.0,'11111222,11111222,99999999' 
TABS,ioos:station:wmo:42050:1,1999-07-03T17:00:00Z,28.8425,-94.2433,2.0,24.57641125,22.93798596,-99999.0,'11111222,11111222,99999999' 
TABS,ioos:station:wmo:42050:1,1999-07-03T17:30:00Z,28.8425,-94.2433,2.0,22.27511892,20.44575506,-99999.0,'11111222,11111222,99999999' 
TABS,ioos:station:wmo:42050:1,1999-07-03T18:00:00Z,28.8425,-94.2433,2.0,25.81627948,20.52885774,-99999.0,'11111222,11111222,99999999' 
TABS,ioos:station:wmo:42050:1,1999-07-03T18:30:00Z,28.8425,-94.2433,2.0,38.14782183,20.26904043,-99999.0,'11111222,11111222,99999999' 
TABS,ioos:station:wmo:42050:1,1999-07-03T19:00:00Z,28.8425,-94.2433,2.0,50.70645468,19.05905034,-99999.0,'11111222,11111222,99999999' 
TABS,ioos:station:wmo:42050:1,1999-07-03T19:30:00Z,28.8425,-94.2433,2.0,47.18961149,16.65745479,-99999.0,'11111222,11111222,99999999' 
TABS,ioos:station:wmo:42050:1,1999-07-03T20:00:00Z,28.8425,-94.2433,2.0,39.02610516,15.15072606,-99999.0,'11111222,11111222,99999999' 
TABS,ioos:station:wmo:42050:1,1999-07-03T20:30:00Z,28.8425,-94.2433,2.0,28.25897581,15.73537734,-99999.0,'11111222,11111222,99999999' 
TABS,ioos:station:wmo:42050:1,1999-07-03T21:00:00Z,28.8425,-94.2433,2.0,26.31709125,14.4585511,-99999.0,'11111222,11111222,99999999' 
TABS,ioos:station:wmo:42050:1,1999-07-03T21:30:00Z,28.8425,-94.2433,2.0,21.23210731,14.38652842,-99999.0,'11111222,11111222,99999999' 
TABS,ioos:station:wmo:42050:1,1999-07-03T22:00:00Z,28.8425,-94.2433,2.0,19.00996958,14.18352918,-99999.0,'11111222,11111222,99999999' 
TABS,ioos:station:wmo:42050:1,1999-07-03T22:30:00Z,28.8425,-94.2433,2.0,25.05821267,15.13447059,-99999.0,'11111222,11111222,99999999' 
TABS,ioos:station:wmo:42050:1,1999-07-03T23:00:00Z,28.8425,-94.2433,2.0,28.33438668,15.06486309,-99999.0,'11111222,11111222,99999999' 
TABS,ioos:station:wmo:42050:1,1999-07-03T23:30:00Z,28.8425,-94.2433,2.0,28.88555595,14.80148979,-99999.0,'11111222,11111222,99999999' 
TABS,ioos:station:wmo:42050:1,1999-07-04T00:00:00Z,28.8425,-94.2433,2.0,29.27323412,14.00895785,-99999.0,'11111222,11111222,99999999' 
TABS,ioos:station:wmo:42050:1,1999-07-04T00:30:00Z,28.8425,-94.2433,2.0,33.03075835,14.21790772,-99999.0,'11111222,11111222,99999999' 
TABS,ioos:station:wmo:42050:1,1999-07-04T01:00:00Z,28.8425,-94.2433,2.0,48.16612221,11.39474001,-99999.0,'11111222,11111222,99999999' 
TABS,ioos:station:wmo:42050:1,1999-07-04T01:30:00Z,28.8425,-94.2433,2.0,46.64713004,11.07079491,-99999.0,'11111222,11111222,99999999' 
TABS,ioos:station:wmo:42050:1,1999-07-04T02:00:00Z,28.8425,-94.2433,2.0,34.89003908,7.8146657,-99999.0,'11133222,11111222,99999999' 
TABS,ioos:station:wmo:42050:1,1999-07-04T02:30:00Z,28.8425,-94.2433,2.0,31.46428051,6.283947804,-99999.0,'11133222,11111222,99999999' 
TABS,ioos:station:wmo:42050:1,1999-07-04T03:00:00Z,28.8425,-94.2433,2.0,28.82569614,6.802940541,-99999.0,'11133222,11111222,99999999' 
TABS,ioos:station:wmo:42050:1,1999-07-04T03:30:00Z,28.8425,-94.2433,2.0,15.69141761,4.954644286,-99999.0,'11133222,11111222,99999999' 
TABS,ioos:station:wmo:42050:1,1999-07-04T04:00:00Z,28.8425,-94.2433,2.0,1.922161923,8.945032141,-99999.0,'11133222,11111222,99999999' 
TABS,ioos:station:wmo:42050:1,1999-07-04T04:30:00Z,28.8425,-94.2433,2.0,3.493068082,9.848294269,-99999.0,'11133222,11111222,99999999' 
TABS,ioos:station:wmo:42050:1,1999-07-04T05:00:00Z,28.8425,-94.2433,2.0,358.5938895,12.22368193,-99999.0,'11111222,11111222,99999999' 
TABS,ioos:station:wmo:42050:1,1999-07-04T05:30:00Z,28.8425,-94.2433,2.0,2.283213228,15.06195538,-99999.0,'11111222,11111222,99999999' 
TABS,ioos:station:wmo:42050:1,1999-07-04T06:00:00Z,28.8425,-94.2433,2.0,354.8612724,14.96013369,-99999.0,'11111222,11111222,99999999' 
TABS,ioos:station:wmo:42050:1,1999-07-04T06:30:00Z,28.8425,-94.2433,2.0,349.602275,16.51114775,-99999.0,'11111222,11111222,99999999' 
TABS,ioos:station:wmo:42050:1,1999-07-04T07:00:00Z,28.8425,-94.2433,2.0,356.8263026,21.49296862,-99999.0,'11111222,11111222,99999999' 
TABS,ioos:station:wmo:42050:1,1999-07-04T07:30:00Z,28.8425,-94.2433,2.0,354.3193329,21.11369698,-99999.0,'11111222,11111222,99999999' 
TABS,ioos:station:wmo:42050:1,1999-07-04T08:00:00Z,28.8425,-94.2433,2.0,357.4379152,23.26325859,-99999.0,'11111222,11111222,99999999' 
TABS,ioos:station:wmo:42050:1,1999-07-04T08:30:00Z,28.8425,-94.2433,2.0,359.2969441,24.44184117,-99999.0,'11111222,11144222,99999999' 
TABS,ioos:station:wmo:42050:1,1999-07-04T09:00:00Z,28.8425,-94.2433,2.0,4.579215509,22.42156551,-99999.0,'11111222,11111222,99999999' 
TABS,ioos:station:wmo:42050:1,1999-07-04T09:30:00Z,28.8425,-94.2433,2.0,9.393745975,19.17715568,-99999.0,'11111222,11111222,99999999' 
TABS,ioos:station:wmo:42050:1,1999-07-04T10:00:00Z,28.8425,-94.2433,2.0,4.768260095,21.53452344,-99999.0,'11111222,11111222,99999999' 
TABS,ioos:station:wmo:42050:1,1999-07-04T11:00:00Z,28.8425,-94.2433,2.0,10.09428656,20.42617194,-99999.0,'11111222,11111222,99999999' 
TABS,ioos:station:wmo:42050:1,1999-07-04T11:30:00Z,28.8425,-94.2433,2.0,17.23328592,18.09220827,-99999.0,'11111222,11111222,99999999' 
TABS,ioos:station:wmo:42050:1,1999-07-04T12:00:00Z,28.8425,-94.2433,2.0,17.90997272,20.35643633,-99999.0,'11111222,11111222,99999999' 
TABS,ioos:station:wmo:42050:1,1999-07-04T12:30:00Z,28.8425,-94.2433,2.0,24.49969443,20.47332411,-99999.0,'11111222,11111222,99999999' 
TABS,ioos:station:wmo:42050:1,1999-07-04T13:00:00Z,28.8425,-94.2433,2.0,26.14273737,17.58938885,-99999.0,'11111222,11111222,99999999' 
TABS,ioos:station:wmo:42050:1,1999-07-04T13:30:00Z,28.8425,-94.2433,2.0,31.98557835,18.27436456,-99999.0,'11111222,11111222,99999999' 
TABS,ioos:station:wmo:42050:1,1999-07-04T14:00:00Z,28.8425,-94.2433,2.0,41.18603931,15.83891726,-99999.0,'11111222,11111222,99999999' 
TABS,ioos:station:wmo:42050:1,1999-07-04T14:30:00Z,28.8425,-94.2433,2.0,49.64113933,15.64299524,-99999.0,'11111222,11111222,99999999' 
TABS,ioos:station:wmo:42050:1,1999-07-04T15:00:00Z,28.8425,-94.2433,2.0,48.32724262,18.15374617,-99999.0,'11111222,11111222,99999999' 
TABS,ioos:station:wmo:42050:1,1999-07-04T15:30:00Z,28.8425,-94.2433,2.0,54.77592687,16.78292287,-99999.0,'11111222,11111222,99999999' 
TABS,ioos:station:wmo:42050:1,1999-07-04T16:00:00Z,28.8425,-94.2433,2.0,65.18036807,15.2704846,-99999.0,'11111222,11111222,99999999' 
TABS,ioos:station:wmo:42050:1,1999-07-04T16:30:00Z,28.8425,-94.2433,2.0,53.03352211,16.59602362,-99999.0,'11111222,11111222,99999999' 